EW5925 Weather Reports


time (UTC)temp
C
wind
direction
speed
KPH
gust
KPH
rain 1hr
cm
rain 24hr
cm
rain mn
cm
humidity
%
barometer
mb
20260905173030 16 10 0.0 1.6 0.00 0.03 0.03 92 1014.8
20260905172531 16 10 0.0 1.6 0.00 0.03 0.03 92 1014.9
20260905172227 16 10 0.0 1.6 0.00 0.03 0.03 92 1014.9
20260905171438 16 10 0.0 3.2 0.00 0.05 0.03 92 1014.9
20260905170910 16 10 0.0 0.0 0.00 0.05 0.03 92 1014.8
20260905170559 16 10 0.0 0.0 0.00 0.05 0.03 92 1014.8
20260905170039 16 10 0.0 0.0 0.00 0.05 0.03 92 1014.8
20260905165251 16 10 0.0 0.0 0.00 0.05 0.03 92 1014.7
20260905164743 16 10 0.0 0.0 0.03 0.05 0.03 92 1014.8
20260905164242 16 10 0.0 0.0 0.03 0.05 0.03 92 1014.8
20260905163737 16 10 0.0 0.0 0.03 0.05 0.03 92 1014.9
20260905163234 16 10 0.0 0.0 0.03 0.05 0.03 92 1014.9
20260905162731 16 10 0.0 0.0 0.03 0.05 0.03 92 1015.1
20260905162231 16 10 0.0 0.0 0.03 0.05 0.03 92 1015.1
20260905161732 16 10 0.0 0.0 0.03 0.05 0.03 92 1015.1
20260905161231 16 10 0.0 0.0 0.03 0.05 0.03 92 1015.1
20260905160958 16 10 0.0 0.0 0.03 0.05 0.03 92 1015.2
20260905160448 16 10 0.0 0.0 0.03 0.05 0.03 92 1015.2
20260905155921 17 10 0.0 0.0 0.03 0.05 0.03 92 1015.4
20260905155807 17 10 0.0 0.0 0.03 0.05 0.03 92 1015.3
20260905154939 17 10 0.0 0.0 0.00 0.03 0.00 92 1015.4
20260905154443 17 10 0.0 0.0 0.00 0.03 0.00 92 1015.5
20260905153720 17 10 0.0 1.6 0.00 0.03 0.00 92 1015.5
20260905153153 17 10 0.0 1.6 0.00 0.03 0.00 92 1015.5
20260905152627 17 10 0.0 1.6 0.00 0.03 0.00 92 1015.6
20260905152057 17 10 0.0 3.2 0.00 0.03 0.00 92 1015.7
20260905151529 17 10 0.0 1.6 0.00 0.03 0.00 92 1015.6
20260905151006 17 10 0.0 0.0 0.00 0.03 0.00 92 1015.6
20260905150655 17 10 0.0 0.0 0.00 0.03 0.00 92 1015.7
20260905150137 17 10 0.0 0.0 0.00 0.03 0.00 92 1015.7
20260905145353 17 10 0.0 1.6 0.00 0.03 0.00 92 1015.7
20260905144855 17 10 0.0 1.6 0.00 0.03 0.00 92 1015.7
20260905144327 17 10 0.0 1.6 0.00 0.03 0.00 92 1015.6
20260905143800 17 10 0.0 1.6 0.00 0.03 0.00 91 1015.5
20260905143241 18 10 0.0 1.6 0.00 0.03 0.00 91 1015.5
20260905142713 18 10 0.0 1.6 0.00 0.03 0.00 91 1015.8
20260905142207 18 10 0.0 1.6 0.00 0.03 0.00 91 1016.0
20260905141916 18 10 0.0 1.6 0.00 0.03 0.00 91 1016.1
20260905141151 18 10 0.0 1.6 0.00 0.03 0.00 91 1016.1
20260905140648 18 10 0.0 1.6 0.00 0.03 0.00 91 1016.1
20260905140147 18 10 0.0 3.2 0.00 0.03 0.00 92 1016.1
20260905135909 18 10 0.0 3.2 0.00 0.03 0.03 92 1016.1
20260905135147 19 11 0.0 1.6 0.00 0.03 0.03 91 1016.2
20260905134641 19 11 0.0 1.6 0.00 0.03 0.03 91 1016.2
20260905134140 19 11 0.0 0.0 0.00 0.03 0.03 91 1016.1
20260905133637 19 11 0.0 0.0 0.00 0.03 0.03 91 1016.1
20260905133135 19 11 0.0 0.0 0.00 0.03 0.03 91 1016.0
20260905132635 19 11 0.0 1.6 0.00 0.03 0.03 92 1015.9
20260905132354 19 11 0.0 1.6 0.00 0.03 0.03 92 1015.9
20260905131631 19 11 0.0 1.6 0.00 0.03 0.03 92 1015.9
20260905131134 19 11 0.0 1.6 0.00 0.03 0.03 92 1016.0
20260905130610 20 11 0.0 0.0 0.00 0.03 0.03 92 1016.0
20260905130042 20 11 0.0 1.6 0.00 0.03 0.03 92 1016.0
20260905125738 20 11 0.0 1.6 0.00 0.03 0.03 92 1016.0
20260905125216 20 11 0.0 3.2 0.00 0.03 0.03 92 1016.1
20260905124419 20 11 0.0 3.2 0.00 0.03 0.03 92 1016.1
20260905123853 20 11 0.0 3.2 0.00 0.03 0.03 92 1016.1
20260905123328 20 11 1.6 8.0 0.00 0.03 0.03 92 1016.2
20260905122800 20 11 1.6 8.0 0.00 0.03 0.03 92 1016.1
20260905122500 20 23 1.6 9.7 0.00 0.03 0.03 92 1016.1
20260905121704 20 20 1.6 9.7 0.00 0.03 0.03 92 1016.1
20260905121137 20 4 1.6 11.3 0.00 0.03 0.03 92 1016.2
20260905120609 20 347 1.6 8.0 0.00 0.03 0.03 92 1016.3
20260905120316 20 3 1.6 6.4 0.00 0.03 0.03 92 1016.5
20260905115514 20 350 1.6 6.4 0.00 0.03 0.03 92 1016.5
20260905114944 20 355 1.6 6.4 0.00 0.03 0.03 92 1016.5
20260905114429 20 4 1.6 6.4 0.00 0.03 0.03 92 1016.6
20260905113901 20 6 1.6 6.4 0.00 0.03 0.03 92 1016.6
20260905113401 20 3 1.6 8.0 0.00 0.03 0.03 92 1016.6
20260905112834 20 357 1.6 8.0 0.00 0.03 0.03 92 1016.6
20260905112528 20 74 1.6 8.0 0.00 0.03 0.03 91 1016.6
20260905111820 20 4 1.6 8.0 0.00 0.03 0.03 91 1016.7
20260905111249 20 11 1.6 8.0 0.00 0.03 0.03 91 1016.7
20260905110750 20 338 3.2 8.0 0.00 0.03 0.03 91 1016.7
20260905110235 20 345 3.2 9.7 0.00 0.03 0.03 91 1016.7
20260905110159 20 335 3.2 8.0 0.00 0.03 0.03 91 1016.7
20260905110044 20 357 3.2 9.7 0.00 0.03 0.03 91 1016.7
20260905104730 20 7 3.2 8.0 0.00 0.03 0.03 91 1016.6
20260905104231 20 0 1.6 9.7 0.00 0.03 0.03 91 1016.6
20260905103730 20 357 3.2 9.7 0.00 0.03 0.03 91 1016.7
20260905103232 20 22 3.2 8.0 0.00 0.03 0.03 91 1016.6
20260905102955 20 356 3.2 8.0 0.00 0.03 0.03 91 1016.6
20260905102707 20 347 3.2 8.0 0.00 0.03 0.03 91 1016.7
20260905101725 20 12 1.6 8.0 0.00 0.03 0.03 91 1016.6
20260905101705 20 355 1.6 9.7 0.00 0.03 0.03 91 1016.6
20260905100722 20 10 1.6 9.7 0.00 0.03 0.03 91 1016.6
20260905100224 20 12 1.6 8.0 0.00 0.03 0.03 91 1016.6
20260905095716 20 313 1.6 8.0 0.00 0.03 0.03 90 1016.6
20260905095215 20 359 1.6 8.0 0.00 0.03 0.03 90 1016.7
20260905094713 20 349 3.2 8.0 0.00 0.03 0.03 90 1016.6
20260905094441 20 8 3.2 11.3 0.00 0.03 0.03 90 1016.7
20260905093645 20 354 3.2 11.3 0.00 0.03 0.03 90 1016.7
20260905093123 20 341 1.6 11.3 0.00 0.03 0.03 90 1016.7
20260905092625 21 4 1.6 11.3 0.00 0.03 0.03 90 1016.7
20260905092102 21 340 3.2 8.0 0.00 0.03 0.03 90 1016.6
20260905091605 21 347 4.8 14.5 0.00 0.03 0.03 90 1016.5
20260905091040 21 338 3.2 14.5 0.00 0.03 0.03 90 1016.5
20260905090757 21 35 3.2 9.7 0.00 0.03 0.03 89 1016.3
20260905090052 21 30 3.2 11.3 0.00 0.03 0.03 89 1016.3
20260905085536 21 8 3.2 11.3 0.00 0.03 0.03 89 1016.2
20260905085033 21 22 3.2 12.9 0.00 0.03 0.03 88 1016.1
20260905084532 21 358 3.2 12.9 0.00 0.03 0.03 88 1016.1
20260905084034 21 12 3.2 11.3 0.00 0.03 0.03 88 1016.0
20260905083532 21 355 3.2 11.3 0.00 0.03 0.03 88 1016.1
20260905083254 21 349 3.2 9.7 0.00 0.03 0.03 87 1016.0
20260905082533 21 337 3.2 8.0 0.00 0.03 0.03 87 1016.0
20260905082032 21 0 3.2 8.0 0.00 0.03 0.03 86 1016.0
20260905081534 21 337 1.6 6.4 0.00 0.03 0.03 86 1016.0
20260905081019 21 359 3.2 8.0 0.00 0.03 0.03 86 1016.0
20260905080517 21 0 4.8 12.9 0.00 0.03 0.03 85 1016.0
20260905080016 21 348 4.8 12.9 0.00 0.03 0.03 84 1016.0
20260905075517 21 355 3.2 9.7 0.00 0.03 0.03 83 1015.9
20260905075016 21 4 3.2 9.7 0.00 0.03 0.03 83 1015.9
20260905074518 22 10 3.2 11.3 0.00 0.03 0.03 81 1015.8
20260905074016 22 350 3.2 11.3 0.00 0.03 0.03 81 1015.8
20260905073515 22 0 3.2 9.7 0.00 0.03 0.03 80 1015.8
20260905073015 22 354 3.2 9.7 0.00 0.03 0.03 79 1015.8
20260905072515 22 353 3.2 9.7 0.00 0.03 0.03 79 1015.8
20260905072020 22 341 3.2 8.0 0.00 0.03 0.03 78 1015.7
20260905071513 22 338 3.2 9.7 0.00 0.03 0.03 78 1015.7
20260905071014 22 22 3.2 9.7 0.00 0.03 0.03 77 1015.7
20260905070447 23 36 3.2 11.3 0.00 0.03 0.03 77 1015.6
20260905065947 23 342 4.8 11.3 0.00 0.03 0.03 76 1015.6
20260905065658 23 343 4.8 9.7 0.00 0.03 0.03 75 1015.7
20260905065204 23 358 4.8 9.7 0.00 0.03 0.03 75 1015.6
20260905064442 23 0 3.2 9.7 0.00 0.03 0.03 75 1015.6
20260905063940 23 6 3.2 9.7 0.00 0.03 0.03 74 1015.5
20260905063439 23 6 3.2 9.7 0.00 0.03 0.03 73 1015.5
20260905062933 23 311 3.2 8.0 0.00 0.03 0.03 73 1015.4
20260905062432 24 66 3.2 8.0 0.00 0.03 0.03 71 1015.4
20260905062156 24 5 3.2 8.0 0.00 0.03 0.03 71 1015.4
20260905061654 24 34 3.2 8.0 0.00 0.03 0.03 70 1015.4
20260905060925 25 29 3.2 11.3 0.00 0.03 0.03 69 1015.4
20260905060423 25 4 3.2 11.3 0.00 0.03 0.03 68 1015.4
20260905055925 25 0 4.8 9.7 0.00 0.03 0.03 67 1015.4
20260905055413 25 6 3.2 11.3 0.00 0.03 0.03 67 1015.4
20260905054912 25 60 3.2 11.3 0.00 0.03 0.03 65 1015.5
20260905054410 26 17 4.8 12.9 0.00 0.03 0.03 64 1015.5
20260905054135 26 35 6.4 16.1 0.00 0.03 0.03 64 1015.5
20260905053411 26 343 6.4 16.1 0.00 0.03 0.03 63 1015.5
20260905052911 26 331 6.4 14.5 0.00 0.03 0.03 63 1015.5
20260905052409 26 16 4.8 12.9 0.00 0.03 0.03 63 1015.5
20260905051906 27 4 4.8 12.9 0.00 0.03 0.03 63 1015.6
20260905051404 27 358 4.8 9.7 0.00 0.03 0.03 63 1015.7
20260905050903 27 60 3.2 11.3 0.00 0.03 0.03 63 1015.6
20260905050403 27 8 3.2 11.3 0.00 0.03 0.03 63 1015.7
20260905045855 27 58 3.2 9.7 0.00 0.03 0.03 62 1015.7
20260905045353 27 7 4.8 9.7 0.00 0.03 0.03 62 1015.8
20260905044851 27 355 6.4 11.3 0.00 0.03 0.03 60 1015.8
20260905044353 27 356 4.8 11.3 0.00 0.03 0.03 60 1015.8
20260905043840 27 0 4.8 9.7 0.00 0.03 0.03 61 1015.8
20260905043600 27 38 3.2 9.7 0.00 0.03 0.03 61 1015.9
20260905042841 27 14 3.2 9.7 0.00 0.03 0.03 61 1015.9
20260905042600 27 333 3.2 14.5 0.00 0.03 0.03 61 1016.0
20260905041835 27 342 3.2 14.5 0.00 0.03 0.03 60 1016.1
20260905041336 27 43 3.2 14.5 0.00 0.03 0.03 62 1016.2
20260905040831 27 6 3.2 14.5 0.00 0.03 0.03 61 1016.5
20260905040329 27 10 3.2 12.9 0.00 0.03 0.03 60 1016.5
20260905035826 27 55 3.2 11.3 0.00 0.03 0.03 60 1016.5
20260905035811 27 27 4.8 11.3 0.00 0.03 0.03 59 1016.6
20260905034826 27 24 3.2 9.7 0.00 0.03 0.03 59 1016.7
20260905034321 27 314 3.2 11.3 0.00 0.03 0.03 60 1016.7
20260905033819 27 18 3.2 11.3 0.00 0.03 0.03 59 1016.8
20260905033318 27 22 3.2 9.7 0.00 0.03 0.03 59 1016.9
20260905033010 27 38 3.2 9.7 0.00 0.03 0.03 58 1017.1
20260905032901 27 4 4.8 9.7 0.00 0.03 0.03 58 1017.1
20260905031949 27 43 3.2 9.7 0.00 0.03 0.03 60 1017.2
20260905031421 27 60 3.2 11.3 0.00 0.03 0.03 60 1017.3
20260905030635 27 66 3.2 11.3 0.00 0.03 0.03 59 1017.4
20260905030123 27 74 4.8 11.3 0.00 0.03 0.03 62 1017.5
20260905025818 26 2 4.8 14.5 0.00 0.03 0.03 61 1017.6
20260905025053 26 13 4.8 11.3 0.00 0.03 0.03 62 1017.7
20260905024528 26 54 4.8 14.5 0.00 0.03 0.03 61 1017.9
20260905023959 26 330 3.2 12.9 0.00 0.03 0.03 62 1018.1
20260905023701 26 67 4.8 12.9 0.00 0.03 0.03 63 1018.2
20260905022907 26 354 4.8 14.5 0.00 0.03 0.03 64 1018.4
20260905022344 26 347 6.4 12.9 0.00 0.03 0.03 66 1018.5
20260905021816 26 338 6.4 14.5 0.00 0.03 0.03 65 1018.7
20260905021248 26 322 4.8 14.5 0.00 0.03 0.03 66 1018.7
20260905020731 26 356 4.8 14.5 0.00 0.03 0.03 67 1018.8
20260905020245 26 6 4.8 14.5 0.00 0.03 0.03 67 1018.9
20260905015705 26 332 4.8 14.5 0.00 0.03 0.03 67 1019.0
20260905015136 26 79 6.4 17.7 0.00 0.03 0.03 67 1019.1
20260905014609 26 4 6.4 17.7 0.00 0.03 0.03 67 1019.3
20260905014040 26 18 4.8 16.1 0.00 0.03 0.03 67 1019.5
20260905013512 26 312 4.8 12.9 0.00 0.03 0.03 67 1019.5
20260905012944 26 317 4.8 11.3 0.00 0.03 0.03 68 1019.6
20260905012910 26 35 4.8 12.9 0.00 0.03 0.03 68 1019.6
20260905011854 26 358 4.8 12.9 0.00 0.03 0.03 68 1019.8
20260905011327 26 38 4.8 14.5 0.00 0.03 0.03 68 1019.8
20260905010809 26 65 6.4 14.5 0.00 0.03 0.03 68 1019.9
20260905010309 26 9 4.8 14.5 0.00 0.03 0.03 67 1020.1
20260905005807 26 16 3.2 12.9 0.00 0.03 0.03 67 1020.1
20260905005527 26 12 3.2 9.7 0.00 0.03 0.03 68 1020.1
20260905004802 26 62 3.2 8.0 0.00 0.03 0.03 69 1020.3
20260905004300 26 61 3.2 9.7 0.00 0.03 0.03 70 1020.4
20260905003802 25 0 3.2 9.7 0.00 0.03 0.03 70 1020.4
20260905003519 25 355 3.2 9.7 0.00 0.03 0.03 70 1020.6
20260905002800 25 324 3.2 8.0 0.00 0.03 0.03 71 1020.6
20260905002254 25 19 1.6 8.0 0.00 0.03 0.03 72 1020.7
20260905001752 25 358 1.6 6.4 0.00 0.03 0.03 74 1020.8
20260905001250 24 355 1.6 6.4 0.00 0.03 0.03 75 1020.8
20260905001012 24 7 1.6 8.0 0.00 0.03 0.03 75 1021.0
20260905000250 23 325 3.2 8.0 0.00 0.03 0.03 76 1021.2
20260904235750 23 320 3.2 8.0 0.00 0.03 0.03 77 1021.3
20260904235249 23 168 1.6 6.4 0.00 0.03 0.03 78 1021.2
20260904234748 23 314 3.2 8.0 0.00 0.03 0.03 79 1021.3
20260904234511 23 338 3.2 8.0 0.00 0.03 0.03 80 1021.3
20260904233749 22 351 3.2 8.0 0.00 0.03 0.03 82 1021.3
20260904233246 22 359 3.2 8.0 0.00 0.03 0.03 83 1021.3
20260904232746 21 337 1.6 6.4 0.00 0.03 0.03 84 1021.4
20260904232248 21 293 1.6 4.8 0.00 0.03 0.03 86 1021.5
20260904231740 21 293 1.6 4.8 0.00 0.03 0.03 86 1021.6
20260904231238 21 321 1.6 4.8 0.00 0.03 0.03 87 1021.6
20260904230736 21 316 1.6 4.8 0.00 0.03 0.03 88 1021.6
20260904230238 20 314 0.0 3.2 0.00 0.03 0.03 88 1021.6
20260904225721 20 314 1.6 3.2 0.00 0.03 0.03 89 1021.6
20260904225711 20 314 1.6 4.8 0.00 0.03 0.03 90 1021.6
20260904224718 19 314 1.6 4.8 0.00 0.03 0.03 91 1021.6
20260904224218 19 222 0.0 3.2 0.00 0.03 0.03 92 1021.5
20260904223718 18 219 0.0 3.2 0.00 0.03 0.03 93 1021.5
20260904223216 18 218 0.0 6.4 0.00 0.03 0.03 94 1021.5
20260904222715 17 215 0.0 6.4 0.00 0.03 0.03 95 1021.5
20260904222212 17 215 1.6 6.4 0.00 0.03 0.03 95 1021.6
20260904221926 17 215 3.2 6.4 0.00 0.03 0.03 95 1021.6
20260904221206 16 192 3.2 4.8 0.00 0.03 0.03 95 1021.6
20260904221145 16 223 1.6 4.8 0.00 0.03 0.03 95 1021.6
20260904220200 16 223 1.6 6.4 0.00 0.03 0.03 95 1021.6
20260904215700 16 222 1.6 6.4 0.00 0.03 0.03 95 1021.6
20260904215200 16 228 1.6 6.4 0.00 0.03 0.03 95 1021.6
20260904214920 16 180 1.6 6.4 0.00 0.03 0.03 94 1021.5
20260904214146 15 180 1.6 8.0 0.00 0.03 0.03 95 1021.6
20260904213646 15 175 1.6 8.0 0.00 0.03 0.03 95 1021.5
20260904213132 15 160 1.6 4.8 0.00 0.03 0.03 94 1021.4
20260904212632 15 160 1.6 4.8 0.00 0.03 0.03 95 1021.4
20260904212130 15 159 0.0 3.2 0.00 0.03 0.03 94 1021.4
20260904211628 15 159 0.0 3.2 0.00 0.03 0.03 94 1021.3
20260904211126 14 159 0.0 3.2 0.00 0.03 0.03 94 1021.2
20260904210624 14 159 0.0 6.4 0.00 0.03 0.03 94 1021.2
20260904210124 14 159 0.0 6.4 0.00 0.03 0.03 94 1021.2
20260904205850 13 158 0.0 1.6 0.00 0.03 0.03 94 1021.1
20260904205123 13 158 0.0 1.6 0.00 0.03 0.03 93 1021.0
20260904204845 13 158 0.0 1.6 0.00 0.03 0.03 93 1021.0
20260904204349 13 158 0.0 3.2 0.00 0.03 0.03 93 1021.0
20260904203616 13 158 0.0 3.2 0.00 0.03 0.03 93 1021.0
20260904203114 13 158 0.0 0.0 0.00 0.03 0.03 93 1020.9
20260904202612 13 158 0.0 1.6 0.00 0.03 0.03 93 1020.9
20260904202114 13 158 0.0 1.6 0.00 0.03 0.03 93 1020.9
20260904201837 13 158 0.0 3.2 0.00 0.03 0.03 92 1020.8
20260904201104 13 158 0.0 3.2 0.00 0.03 0.03 92 1020.7
20260904200602 13 158 0.0 3.2 0.00 0.03 0.03 92 1020.6
20260904200108 13 158 0.0 3.2 0.00 0.03 0.03 92 1020.5
20260904195825 13 158 0.0 1.6 0.00 0.03 0.03 92 1020.5
20260904195058 13 158 0.0 1.6 0.00 0.03 0.03 92 1020.5
20260904194555 13 158 0.0 1.6 0.00 0.03 0.03 92 1020.4
20260904194052 13 158 0.0 1.6 0.00 0.03 0.03 92 1020.4
20260904193545 13 158 0.0 1.6 0.00 0.03 0.03 92 1020.3
20260904193045 13 158 0.0 1.6 0.00 0.03 0.03 92 1020.3
20260904192543 13 158 0.0 1.6 0.00 0.03 0.03 92 1020.3
20260904192040 13 158 0.0 1.6 0.00 0.03 0.03 91 1020.3
20260904191538 13 158 0.0 1.6 0.00 0.03 0.03 91 1020.2
20260904191036 13 158 0.0 1.6 0.00 0.03 0.03 91 1020.2
20260904190759 13 158 0.0 1.6 0.00 0.05 0.03 91 1020.2
20260904190010 13 158 0.0 0.0 0.00 0.05 0.03 91 1020.2
20260904185449 13 158 0.0 1.6 0.00 0.05 0.03 91 1020.1
20260904184951 13 158 0.0 1.6 0.00 0.05 0.03 91 1020.1
20260904184445 13 158 0.0 1.6 0.00 0.05 0.03 91 1020.1
20260904183945 14 158 0.0 1.6 0.00 0.05 0.03 91 1020.0
20260904183713 14 158 0.0 1.6 0.00 0.05 0.03 91 1020.0
20260904183204 14 158 0.0 1.6 0.00 0.05 0.03 91 1020.0
20260904182444 14 158 0.0 1.6 0.00 0.05 0.03 91 1020.0
20260904182213 14 158 0.0 0.0 0.00 0.05 0.03 91 1020.0
20260904181441 14 158 0.0 0.0 0.03 0.05 0.03 91 1020.1
20260904180940 14 158 0.0 0.0 0.03 0.05 0.03 91 1020.1
20260904180438 14 158 0.0 0.0 0.03 0.05 0.03 91 1020.0
20260904175938 14 158 0.0 0.0 0.03 0.05 0.03 91 1020.0
20260904175433 14 158 0.0 0.0 0.03 0.05 0.03 91 1020.0
20260904174932 15 158 0.0 0.0 0.03 0.05 0.03 91 1020.0
20260904174426 15 158 0.0 0.0 0.03 0.05 0.03 91 1019.9
20260904173924 15 158 0.0 1.6 0.03 0.05 0.03 91 1019.8
20260904173421 15 158 0.0 1.6 0.03 0.05 0.03 91 1019.8